User: anonymous   Login
Location: Caltech
(34.1382°N, 118.1253°W)
Time: 19:29:46
(UTC-07:00)
Language:

Cosmos 1408 Rocket - Orbit

View from above orbital plane
View from above orbital plane
View from above satellite
View from above satellite

Ground track
Ground track

The orbit data is extracted from the following two-line orbital elements,

1 13553U 82092B   15187.48904383  .00000259  00000-0  28236-4 0  9990
2 13553 082.5680 177.0657 0020169 233.9636 242.4454 14.83918114771483
Epoch (UTC): 06 July 2015 11:44:13
Eccentricity: 0.0020169
inclination: 82.5680°
perigee height: 603 km
apogee height: 631 km
right ascension of ascending node: 177.0657°
argument of perigee: 233.9636°
revolutions per day: 14.83918114
mean anomaly at epoch: 242.4454°
orbit number at epoch: 77148

The dashed part of the orbit path shows where the satellite is in the earth's shadow,  

DLR